Location: Aulnoy
(48.8410°N, 3.0967°E)
Time: 16:25:00
(UTC+00:00)

COSMOS 2428 - Pass Details

Date: 09 February 2023
Orbit: 843 x 858 km, 70.9° (Epoch: 26 March)

Event Time Altitude Azimuth Distance (km) Brightness Sun altitude
Rises 18:55:42 0° 212° (SSW) 3,390 6.3 -19.7°
Reaches altitude 10° 18:58:08 10° 214° (SW) 2,459 5.5 -20.1°
Maximum altitude 19:03:47 74° 300° (WNW) 881 2.8 -21.1°
Enters shadow 19:09:07 12° 25° (NNE) 2,348 4.8 -21.9°
